This is the latest recevied weather packets stored in our database for station/object G7UKK-10. If no packets are shown the sender has not sent any weather packets the latest 10 day(s).
| Time | Temp. | Humidity | Pressure | Rain* | Wind** | Luminosity | Snow |
|---|---|---|---|---|---|---|---|
| 1777531217 | 5.56° C | 92% | 1028.6 hPa | 0 mm | - | - | - |
| 1777530316 | 5° C | 93% | 1028.8 hPa | 0 mm | - | - | - |
| 1777529416 | 4.44° C | 93% | 1028.6 hPa | 0 mm | - | - | - |
| 1777528516 | 4.44° C | 93% | 1028.4 hPa | 0 mm | - | - | - |
| 1777527616 | 3.89° C | 93% | 1028.6 hPa | 0 mm | - | - | - |
| 1777526716 | 3.89° C | 93% | 1028.4 hPa | 0 mm | - | - | - |
| 1777525817 | 3.33° C | 93% | 1028.2 hPa | 0 mm | - | - | - |
| 1777524917 | 3.33° C | 93% | 1028.3 hPa | 0 mm | - | - | - |
| 1777524016 | 3.89° C | 93% | 1028.2 hPa | 0 mm | - | - | - |
| 1777523116 | 3.89° C | 93% | 1028.4 hPa | 0 mm | - | - | - |
| 1777522216 | 3.89° C | 93% | 1028.4 hPa | 0 mm | - | - | - |
| 1777521316 | 3.89° C | 92% | 1028.5 hPa | 0 mm | - | - | - |
| 1777520416 | 3.33° C | 91% | 1028.5 hPa | 0 mm | - | - | - |
| 1777519516 | 3.33° C | 91% | 1028.7 hPa | 0 mm | - | - | - |
| 1777518616 | 3.89° C | 91% | 1028.6 hPa | 0 mm | - | - | - |
| 1777517716 | 3.33° C | 90% | 1028.8 hPa | 0 mm | - | - | - |
| 1777516816 | 3.89° C | 90% | 1029.1 hPa | 0 mm | - | - | - |
| 1777515916 | 4.44° C | 90% | 1029.2 hPa | 0 mm | - | - | - |
| 1777515016 | 4.44° C | 90% | 1029.1 hPa | 0 mm | - | - | - |
| 1777514116 | 4.44° C | 89% | 1029.1 hPa | 0 mm | - | - | - |
| 1777513216 | 4.44° C | 89% | 1029.3 hPa | 0 mm | - | - | - |
| 1777512316 | 5° C | 88% | 1029.6 hPa | 0 mm | - | - | - |
| 1777511416 | 5° C | 88% | 1029.6 hPa | 0 mm | - | - | - |
| 1777510516 | 5° C | 88% | 1029.6 hPa | 0 mm | - | - | - |
| 1777509616 | 5° C | 87% | 1029.6 hPa | 0 mm | - | - | - |
* Rain latest hour (hover to see other rain measurements)
** Current wind speed in m/s (hover to see current wind gust speed)